Powrót do katalogu

ZHEDA PIXING 1C

AktywnyNaukaSSO
NORAD 37167·PAYLOAD·🇨🇳 China

Wystrzelony Sep 22, 2010 z Jiuquan Satellite Launch Center

Loading…

Następne Przeloty (najbliższe 24 godziny)

TLE

ŚwieżeSource: Space-Track

Epoka: Sep 14, 2026, 14:40 UTC

1 37167U 10047C   26257.61149262  .00000634  00000-0  69607-4 0  9994
2 37167  97.9874 240.2520 0019124 357.3871   2.7244 14.91193082863752

Śledź ZHEDA PIXING 1C w czasie rzeczywistym z AllMySat

Download on the App Store